| time (UTC) | temp C | wind direction | speed KPH | gust KPH | rain 1hr cm | rain 24hr cm | rain mn cm | humidity % | barometer mb |
| 20260504081556 | 15 | 190 | 16.1 | 33.8 | 0.03 | 0.03 | 0.03 | 80 | 1009.6 |
| 20260504044535 | 14 | 144 | 0.0 | 8.0 | 0.00 | 0.00 | 0.00 | 66 | 1011.9 |
| 20260504043017 | 15 | 188 | 1.6 | 12.9 | 0.00 | 0.00 | 0.00 | 65 | 1011.8 |
| 20260504041509 | 14 | 174 | 1.6 | 9.7 | 0.00 | 0.00 | 0.00 | 69 | 1011.9 |
| 20260504040057 | 14 | 178 | 0.0 | 9.7 | 0.00 | 0.00 | 0.00 | 70 | 1012.2 |
| 20260504034555 | 14 | 199 | 1.6 | 11.3 | 0.00 | 0.00 | 0.00 | 70 | 1012.9 |
| 20260504033029 | 15 | 207 | 3.2 | 9.7 | 0.00 | 0.00 | 0.00 | 65 | 1013.3 |
| 20260504031528 | 15 | 191 | 3.2 | 8.0 | 0.00 | 0.00 | 0.00 | 65 | 1012.9 |
| 20260504030009 | 14 | 151 | 0.0 | 1.6 | 0.00 | 0.00 | 0.00 | 66 | 1012.9 |
| 20260504024506 | 15 | 154 | 0.0 | 0.0 | 0.00 | 0.00 | 0.00 | 64 | 1013.4 |
| 20260504023048 | 15 | 154 | 0.0 | 3.2 | 0.00 | 0.00 | 0.00 | 64 | 1013.1 |
| 20260504021548 | 15 | 184 | 0.0 | 6.4 | 0.00 | 0.00 | 0.00 | 64 | 1013.1 |
| 20260504020037 | 15 | 152 | 0.0 | 0.0 | 0.00 | 0.00 | 0.00 | 64 | 1012.9 |
| 20260504014536 | 15 | 158 | 0.0 | 8.0 | 0.00 | 0.00 | 0.00 | 60 | 1012.9 |
| 20260504013017 | 16 | 168 | 1.6 | 6.4 | 0.00 | 0.00 | 0.00 | 60 | 1012.5 |
| 20260504011512 | 16 | 161 | 0.0 | 6.4 | 0.00 | 0.00 | 0.00 | 59 | 1012.5 |
| 20260504010054 | 16 | 166 | 0.0 | 8.0 | 0.00 | 0.00 | 0.00 | 56 | 1012.6 |
| 20260504004554 | 17 | 175 | 0.0 | 11.3 | 0.00 | 0.00 | 0.00 | 54 | 1012.6 |
| 20260504003035 | 17 | 164 | 3.2 | 14.5 | 0.00 | 0.00 | 0.00 | 53 | 1012.5 |
| 20260504001536 | 17 | 179 | 4.8 | 12.9 | 0.00 | 0.00 | 0.00 | 52 | 1012.7 |
| 20260504000015 | 18 | 232 | 6.4 | 16.1 | 0.00 | 0.00 | 0.00 | 52 | 1012.9 |
| 20260503234518 | 18 | 193 | 9.7 | 16.1 | 0.00 | 0.00 | 0.00 | 51 | 1013.2 |
| 20260503233056 | 18 | 215 | 8.0 | 19.3 | 0.00 | 0.00 | 0.00 | 51 | 1013.4 |
| 20260503231601 | 18 | 201 | 9.7 | 25.7 | 0.00 | 0.00 | 0.00 | 51 | 1013.5 |
| 20260503230038 | 18 | 233 | 12.9 | 25.7 | 0.00 | 0.00 | 0.00 | 48 | 1013.6 |
| 20260503224540 | 18 | 211 | 11.3 | 30.6 | 0.00 | 0.00 | 0.00 | 49 | 1013.4 |
| 20260503223020 | 18 | 187 | 11.3 | 24.1 | 0.00 | 0.00 | 0.00 | 50 | 1013.0 |
| 20260503221518 | 18 | 203 | 17.7 | 30.6 | 0.00 | 0.00 | 0.00 | 50 | 1012.9 |
| 20260503220118 | 18 | 178 | 17.7 | 30.6 | 0.00 | 0.00 | 0.00 | 50 | 1013.0 |
| 20260503214557 | 18 | 196 | 11.3 | 30.6 | 0.00 | 0.00 | 0.00 | 53 | 1013.2 |
| 20260503213102 | 18 | 225 | 16.1 | 30.6 | 0.00 | 0.00 | 0.00 | 53 | 1013.4 |
| 20260503211548 | 18 | 221 | 19.3 | 33.8 | 0.00 | 0.00 | 0.00 | 51 | 1014.0 |
| 20260503210034 | 18 | 207 | 14.5 | 27.4 | 0.00 | 0.00 | 0.00 | 54 | 1014.2 |
| 20260503204514 | 18 | 197 | 14.5 | 30.6 | 0.00 | 0.00 | 0.00 | 54 | 1014.4 |
| 20260503203012 | 18 | 189 | 14.5 | 29.0 | 0.00 | 0.00 | 0.00 | 54 | 1015.0 |
| 20260503201551 | 17 | 212 | 11.3 | 24.1 | 0.00 | 0.00 | 0.00 | 55 | 1015.5 |
| 20260503200058 | 17 | 190 | 17.7 | 35.4 | 0.00 | 0.00 | 0.00 | 53 | 1015.8 |
| 20260503194530 | 17 | 207 | 14.5 | 33.8 | 0.00 | 0.00 | 0.00 | 55 | 1016.4 |
| 20260503193033 | 17 | 200 | 14.5 | 32.2 | 0.00 | 0.00 | 0.00 | 55 | 1016.8 |
| 20260503191516 | 17 | 208 | 16.1 | 30.6 | 0.00 | 0.00 | 0.00 | 54 | 1017.1 |
| 20260503190008 | 17 | 175 | 16.1 | 35.4 | 0.00 | 0.00 | 0.00 | 55 | 1017.4 |
| 20260503184559 | 17 | 246 | 16.1 | 32.2 | 0.00 | 0.00 | 0.00 | 56 | 1017.5 |
| 20260503183047 | 17 | 196 | 14.5 | 29.0 | 0.00 | 0.00 | 0.00 | 58 | 1017.7 |
| 20260503181527 | 16 | 212 | 16.1 | 30.6 | 0.00 | 0.00 | 0.00 | 57 | 1018.0 |
| 20260503180041 | 16 | 240 | 12.9 | 24.1 | 0.00 | 0.00 | 0.00 | 58 | 1018.6 |
| 20260503174504 | 16 | 238 | 16.1 | 32.2 | 0.00 | 0.00 | 0.00 | 59 | 1019.0 |
| 20260503173001 | 16 | 161 | 14.5 | 25.7 | 0.00 | 0.00 | 0.00 | 62 | 1019.5 |
| 20260503171541 | 15 | 218 | 12.9 | 24.1 | 0.00 | 0.00 | 0.00 | 62 | 1020.0 |